Location: *
(43.0833°N, 13.0500°E)
Time: 23:14:32
(UTC+00:00)

Cosmos 1633 - Pass Details

Date: 15 November 2019
Orbit: 466 x 482 km, 82.5° (Epoch: 05 December)

Event Time Altitude Azimuth Distance (km) Brightness Sun altitude
Rises 16:22:30 0° 6° (N) 2,556 6.0 -7.3°
Reaches altitude 10° 16:25:03 10° 24° (NNE) 1,670 4.9 -7.7°
Maximum altitude 16:27:48 20° 73° (ENE) 1,171 3.9 -8.2°
Drops below altitude 10° 16:30:31 10° 122° (ESE) 1,656 4.9 -8.7°
Sets 16:33:01 0° 140° (SE) 2,527 6.0 -9.1°
